Time,TemperatureF,DewpointF,PressureIn,WindDirection,WindDirectionDegrees,WindSpeedMPH,WindSpeedGustMPH,Humidity,HourlyPrecipIn,Conditions,Clouds,dailyrainin,SolarRadiationWatts/m^2,SoftwareType,DateUTC
2013-04-23 00:02:00,21.0,11.0,-100.00,West,263,5.0,7.0,66,0.00,,,0.32,0.000000,,2013-04-23 06:02:00,
2013-04-23 00:12:00,21.0,11.0,-100.00,West,263,5.0,7.0,66,0.00,,,0.32,0.000000,,2013-04-23 06:12:00,
2013-04-23 00:33:00,21.0,11.0,-100.00,West,262,6.0,9.0,66,0.00,,,0.32,0.000000,,2013-04-23 06:33:00,
2013-04-23 00:42:00,21.0,11.0,-100.00,West,262,6.0,9.0,66,0.00,,,0.32,0.000000,,2013-04-23 06:42:00,
2013-04-23 00:52:00,21.0,11.0,-100.00,West,262,6.0,9.0,66,0.00,,,0.32,0.000000,,2013-04-23 06:52:00,
2013-04-23 01:02:00,21.0,11.0,-100.00,West,262,6.0,9.0,66,0.00,,,0.32,0.000000,,2013-04-23 07:02:00,
2013-04-23 01:11:00,21.0,11.0,-100.00,West,262,6.0,9.0,66,0.00,,,0.32,0.000000,,2013-04-23 07:11:00,
2013-04-23 01:32:00,20.0,10.0,-100.00,WSW,256,6.0,9.0,65,0.00,,,0.32,0.000000,,2013-04-23 07:32:00,
2013-04-23 01:42:00,20.0,10.0,-100.00,WSW,256,6.0,9.0,65,0.00,,,0.32,0.000000,,2013-04-23 07:42:00,
2013-04-23 01:52:00,20.0,10.0,-100.00,WSW,256,6.0,9.0,65,0.00,,,0.32,0.000000,,2013-04-23 07:52:00,
2013-04-23 02:02:00,20.0,10.0,-100.00,WSW,256,6.0,9.0,65,0.00,,,0.32,0.000000,,2013-04-23 08:02:00,
2013-04-23 02:11:00,20.0,10.0,-100.00,WSW,256,6.0,9.0,65,0.00,,,0.32,0.000000,,2013-04-23 08:11:00,
2013-04-23 02:32:00,18.0,10.0,-100.00,WSW,248,6.0,8.0,69,0.00,,,0.32,0.000000,,2013-04-23 08:32:00,
2013-04-23 02:42:00,18.0,10.0,-100.00,WSW,248,6.0,8.0,69,0.00,,,0.32,0.000000,,2013-04-23 08:42:00,
2013-04-23 02:52:00,18.0,10.0,-100.00,WSW,248,6.0,8.0,69,0.00,,,0.32,0.000000,,2013-04-23 08:52:00,
2013-04-23 03:01:00,18.0,10.0,-100.00,WSW,248,6.0,8.0,69,0.00,,,0.32,0.000000,,2013-04-23 09:01:00,
2013-04-23 03:11:00,18.0,10.0,-100.00,WSW,248,6.0,8.0,69,0.00,,,0.32,0.000000,,2013-04-23 09:11:00,
2013-04-23 03:13:00,18.0,9.0,-100.00,West,270,7.0,9.0,66,0.00,,,0.32,0.000000,,2013-04-23 09:13:00,
2013-04-23 03:43:00,18.0,9.0,-100.00,West,270,7.0,9.0,66,0.00,,,0.32,0.000000,,2013-04-23 09:43:00,
2013-04-23 03:53:00,18.0,9.0,-100.00,West,270,7.0,9.0,66,0.00,,,0.32,0.000000,,2013-04-23 09:53:00,
2013-04-23 04:02:00,18.0,9.0,-100.00,West,270,7.0,9.0,66,0.00,,,0.32,0.000000,,2013-04-23 10:02:00,
2013-04-23 04:33:00,18.0,8.0,-100.00,West,265,6.0,11.0,65,0.00,,,0.32,0.000000,,2013-04-23 10:33:00,
2013-04-23 04:43:00,18.0,8.0,-100.00,West,265,6.0,11.0,65,0.00,,,0.32,0.000000,,2013-04-23 10:43:00,
2013-04-23 04:52:00,18.0,8.0,-100.00,West,265,6.0,11.0,65,0.00,,,0.32,0.000000,,2013-04-23 10:52:00,
2013-04-23 05:03:00,18.0,8.0,-100.00,West,265,6.0,11.0,65,0.00,,,0.32,0.000000,,2013-04-23 11:03:00,
2013-04-23 05:12:00,18.0,8.0,-100.00,West,265,6.0,11.0,65,0.00,,,0.32,0.000000,,2013-04-23 11:12:00,
2013-04-23 05:32:00,17.0,7.0,-100.00,West,269,6.0,10.0,65,0.00,,,0.32,0.000000,,2013-04-23 11:32:00,
2013-04-23 05:43:00,17.0,7.0,-100.00,West,269,6.0,10.0,65,0.00,,,0.32,0.000000,,2013-04-23 11:43:00,
2013-04-23 05:53:00,17.0,7.0,-100.00,West,269,6.0,10.0,65,0.00,,,0.32,0.000000,,2013-04-23 11:53:00,
2013-04-23 06:02:00,17.0,7.0,-100.00,West,269,6.0,10.0,65,0.00,,,0.32,0.000000,,2013-04-23 12:02:00,
2013-04-23 06:12:00,17.0,7.0,-100.00,West,269,6.0,10.0,65,0.00,,,0.32,0.000000,,2013-04-23 12:12:00,
2013-04-23 07:42:00,20.0,9.0,-100.00,West,280,7.0,12.0,61,-99.99,,,0.32,32.000000,,2013-04-23 13:42:00,
2013-04-23 07:52:00,20.0,9.0,-100.00,West,280,7.0,12.0,61,-99.99,,,0.32,32.000000,,2013-04-23 13:52:00,
2013-04-23 08:02:00,20.0,9.0,-100.00,West,280,7.0,12.0,61,-99.99,,,0.32,32.000000,,2013-04-23 14:02:00,
2013-04-23 08:11:00,20.0,9.0,-100.00,West,280,7.0,12.0,61,-99.99,,,0.32,32.000000,,2013-04-23 14:11:00,
2013-04-23 08:42:00,26.0,12.0,-100.00,NW,310,6.0,11.0,56,0.00,,,0.32,268.000000,,2013-04-23 14:42:00,
2013-04-23 08:52:00,26.0,12.0,-100.00,NW,310,6.0,11.0,56,0.00,,,0.32,268.000000,,2013-04-23 14:52:00,
2013-04-23 09:01:00,26.0,12.0,-100.00,NW,310,6.0,11.0,56,0.00,,,0.32,268.000000,,2013-04-23 15:01:00,
2013-04-23 09:12:00,26.0,12.0,-100.00,NW,310,6.0,11.0,56,0.00,,,0.32,268.000000,,2013-04-23 15:12:00,
2013-04-23 09:43:00,32.0,13.0,-100.00,NNW,341,5.0,11.0,45,0.00,,,0.32,514.000000,,2013-04-23 15:43:00,
2013-04-23 09:53:00,32.0,13.0,-100.00,NNW,341,5.0,11.0,45,0.00,,,0.32,514.000000,,2013-04-23 15:53:00,
2013-04-23 10:03:00,32.0,13.0,-100.00,NNW,341,5.0,11.0,45,0.00,,,0.32,514.000000,,2013-04-23 16:03:00,
2013-04-23 10:12:00,32.0,13.0,-100.00,NNW,341,5.0,11.0,45,0.00,,,0.32,514.000000,,2013-04-23 16:12:00,
2013-04-23 10:34:00,31.0,11.0,-100.00,SE,131,5.0,10.0,43,0.01,,,0.33,802.000000,,2013-04-23 16:34:00,
2013-04-23 10:43:00,31.0,11.0,-100.00,SE,131,5.0,10.0,43,0.01,,,0.33,802.000000,,2013-04-23 16:43:00,
2013-04-23 10:53:00,31.0,11.0,-100.00,SE,131,5.0,10.0,43,0.01,,,0.33,802.000000,,2013-04-23 16:53:00,
2013-04-23 11:02:00,31.0,11.0,-100.00,SE,131,5.0,10.0,43,0.01,,,0.33,802.000000,,2013-04-23 17:02:00,
2013-04-23 11:11:00,31.0,11.0,-100.00,SE,131,5.0,10.0,43,0.01,,,0.33,802.000000,,2013-04-23 17:11:00,
2013-04-23 11:33:00,28.0,17.0,-100.00,SE,133,9.0,13.0,62,0.02,,,0.35,735.000000,,2013-04-23 17:33:00,
2013-04-23 11:43:00,28.0,17.0,-100.00,SE,133,9.0,13.0,62,0.02,,,0.35,735.000000,,2013-04-23 17:43:00,
2013-04-23 11:53:00,28.0,17.0,-100.00,SE,133,9.0,13.0,62,0.02,,,0.35,735.000000,,2013-04-23 17:53:00,
2013-04-23 12:02:00,28.0,17.0,-100.00,SE,133,9.0,13.0,62,0.02,,,0.35,735.000000,,2013-04-23 18:02:00,
2013-04-23 12:12:00,28.0,17.0,-100.00,SE,133,9.0,13.0,62,0.02,,,0.35,735.000000,,2013-04-23 18:12:00,
2013-04-23 12:32:00,30.0,17.0,-100.00,South,179,10.0,18.0,58,0.00,,,0.35,712.000000,,2013-04-23 18:32:00,
2013-04-23 12:42:00,30.0,17.0,-100.00,South,179,10.0,18.0,58,0.00,,,0.35,712.000000,,2013-04-23 18:42:00,
2013-04-23 12:52:00,30.0,17.0,-100.00,South,179,10.0,18.0,58,0.00,,,0.35,712.000000,,2013-04-23 18:52:00,
2013-04-23 13:02:00,30.0,17.0,-100.00,South,179,10.0,18.0,58,0.00,,,0.35,712.000000,,2013-04-23 19:02:00,
2013-04-23 13:11:00,30.0,17.0,-100.00,South,179,10.0,18.0,58,0.00,,,0.35,712.000000,,2013-04-23 19:11:00,
2013-04-23 13:32:00,33.0,17.0,-100.00,SSW,205,9.0,21.0,52,0.00,,,0.34,1127.000000,,2013-04-23 19:32:00,
2013-04-23 13:42:00,33.0,17.0,-100.00,SSW,205,9.0,21.0,52,0.00,,,0.34,1127.000000,,2013-04-23 19:42:00,
2013-04-23 13:52:00,33.0,17.0,-100.00,SSW,205,9.0,21.0,52,0.00,,,0.34,1127.000000,,2013-04-23 19:52:00,
2013-04-23 14:02:00,33.0,17.0,-100.00,SSW,205,9.0,21.0,52,0.00,,,0.34,1127.000000,,2013-04-23 20:02:00,
2013-04-23 14:11:00,33.0,17.0,-100.00,SSW,205,9.0,21.0,52,0.00,,,0.34,1127.000000,,2013-04-23 20:11:00,
2013-04-23 14:32:00,32.0,16.0,-100.00,SSW,196,11.0,18.0,51,0.00,,,0.20,1143.000000,,2013-04-23 20:32:00,
2013-04-23 14:42:00,32.0,16.0,-100.00,SSW,196,11.0,18.0,51,0.00,,,0.20,1143.000000,,2013-04-23 20:42:00,
2013-04-23 14:52:00,32.0,16.0,-100.00,SSW,196,11.0,18.0,51,0.00,,,0.20,1143.000000,,2013-04-23 20:52:00,
2013-04-23 15:02:00,32.0,16.0,-100.00,SSW,196,11.0,18.0,51,0.00,,,0.20,1143.000000,,2013-04-23 21:02:00,
2013-04-23 15:12:00,32.0,16.0,-100.00,SSW,196,11.0,18.0,51,0.00,,,0.20,1143.000000,,2013-04-23 21:12:00,
2013-04-23 15:33:00,35.0,16.0,-100.00,SSW,195,8.0,20.0,45,0.00,,,0.08,1071.000000,,2013-04-23 21:33:00,
2013-04-23 15:43:00,35.0,16.0,-100.00,SSW,195,8.0,20.0,45,0.00,,,0.08,1071.000000,,2013-04-23 21:43:00,
2013-04-23 15:52:00,35.0,16.0,-100.00,SSW,195,8.0,20.0,45,0.00,,,0.08,1071.000000,,2013-04-23 21:52:00,
2013-04-23 16:03:00,35.0,16.0,-100.00,SSW,195,8.0,20.0,45,0.00,,,0.08,1071.000000,,2013-04-23 22:03:00,
2013-04-23 16:12:00,35.0,16.0,-100.00,SSW,195,8.0,20.0,45,0.00,,,0.08,1071.000000,,2013-04-23 22:12:00,
2013-04-23 16:42:00,35.0,14.0,-100.00,SSW,210,11.0,19.0,41,0.00,,,0.03,929.000000,,2013-04-23 22:42:00,
2013-04-23 16:52:00,35.0,14.0,-100.00,SSW,210,11.0,19.0,41,0.00,,,0.03,929.000000,,2013-04-23 22:52:00,
2013-04-23 17:03:00,35.0,14.0,-100.00,SSW,210,11.0,19.0,41,0.00,,,0.03,929.000000,,2013-04-23 23:03:00,
2013-04-23 17:12:00,35.0,14.0,-100.00,SSW,210,11.0,19.0,41,0.00,,,0.03,929.000000,,2013-04-23 23:12:00,
2013-04-23 17:32:00,38.0,15.0,-100.00,West,263,5.0,19.0,38,0.00,,,0.03,730.000000,,2013-04-23 23:32:00,
2013-04-23 17:42:00,38.0,15.0,-100.00,West,263,5.0,19.0,38,0.00,,,0.03,730.000000,,2013-04-23 23:42:00,
2013-04-23 17:52:00,38.0,15.0,-100.00,West,263,5.0,19.0,38,0.00,,,0.03,730.000000,,2013-04-23 23:52:00,
2013-04-23 18:01:00,38.0,15.0,-100.00,West,263,5.0,19.0,38,0.00,,,0.03,730.000000,,2013-04-24 00:01:00,
2013-04-23 18:11:00,38.0,15.0,-100.00,West,263,5.0,19.0,38,0.00,,,0.03,730.000000,,2013-04-24 00:11:00,
2013-04-23 19:13:00,31.0,20.0,-100.00,NNW,347,3.0,13.0,64,-99.99,,,0.03,198.000000,,2013-04-24 01:13:00,
2013-04-23 19:43:00,31.0,20.0,-100.00,NNW,347,3.0,13.0,64,-99.99,,,0.03,198.000000,,2013-04-24 01:43:00,
2013-04-23 19:52:00,31.0,20.0,-100.00,NNW,347,3.0,13.0,64,-99.99,,,0.03,198.000000,,2013-04-24 01:52:00,
2013-04-23 20:02:00,31.0,20.0,-100.00,NNW,347,3.0,13.0,64,-99.99,,,0.03,198.000000,,2013-04-24 02:02:00,
2013-04-23 20:42:00,28.0,20.0,-100.00,West,280,2.0,8.0,70,0.00,,,0.03,17.000000,,2013-04-24 02:42:00,
2013-04-23 20:50:00,28.0,20.0,-100.00,West,280,2.0,8.0,70,0.00,,,0.03,17.000000,,2013-04-24 02:50:00,
2013-04-23 21:00:00,28.0,20.0,-100.00,West,280,2.0,8.0,70,0.00,,,0.03,17.000000,,2013-04-24 03:00:00,
2013-04-23 21:09:00,28.0,20.0,-100.00,West,280,2.0,8.0,70,0.00,,,0.03,17.000000,,2013-04-24 03:09:00,
2013-04-23 21:53:00,27.0,19.0,-100.00,WSW,249,1.0,4.0,70,0.00,,,0.03,0.000000,,2013-04-24 03:53:00,
2013-04-23 22:01:00,27.0,19.0,-100.00,WSW,249,1.0,4.0,70,0.00,,,0.03,0.000000,,2013-04-24 04:01:00,
2013-04-23 22:03:00,27.0,19.0,-100.00,WSW,249,1.0,4.0,70,0.00,,,0.03,0.000000,,2013-04-24 04:03:00,
2013-04-23 22:12:00,27.0,19.0,-100.00,WSW,249,1.0,4.0,70,0.00,,,0.03,0.000000,,2013-04-24 04:12:00,
2013-04-23 22:43:00,24.0,16.0,-100.00,NNW,347,2.0,3.0,71,0.00,,,0.03,0.000000,,2013-04-24 04:43:00,
2013-04-23 22:53:00,24.0,16.0,-100.00,NNW,347,2.0,3.0,71,0.00,,,0.03,0.000000,,2013-04-24 04:53:00,
2013-04-23 23:02:00,24.0,16.0,-100.00,NNW,347,2.0,3.0,71,0.00,,,0.03,0.000000,,2013-04-24 05:02:00,
2013-04-23 23:12:00,24.0,16.0,-100.00,NNW,347,2.0,3.0,71,0.00,,,0.03,0.000000,,2013-04-24 05:12:00,
2013-04-23 23:42:00,28.0,11.0,-100.00,WNW,302,4.0,11.0,49,0.00,,,0.03,0.000000,,2013-04-24 05:42:00,
2013-04-23 23:52:00,28.0,11.0,-100.00,WNW,302,4.0,11.0,49,0.00,,,0.03,0.000000,,2013-04-24 05:52:00,